Αρχική σελίδα
METAR-TAF:

METAR-TAF

Αεροδρόμια :

Jim Kelly Field

Lexington, Νεμπράσκα, Ηνωμένες Πολιτείες Αμερικής

γεωγραφικό πλάτος: 40-47-28N, γεωγραφικό μήκος: 099-46-38W, υψόμετρο: 736 μ

Παρών καιρός

Η αναφορά έγινε 29 λεπτά πριν, στις 11:55 UTC
Άνεμος 8 kt από Δ/BΔ
Θερμοκρασία -2°C
Υγρασία 86%
Πίεση 1025 hPa
Ορατότητα: 16.1 χλμ
Καθαρός ουρανός

METAR: KLXN 161155Z AUTO 29008KT 10SM CLR M02/M04 A3026 RMK AO2 T10171037 11003 21032

Χρόνος: 06:24 (12:24 UTC)


TAF: λείπει

Μετεωρολογικές αναφορές και προγνώσεις για περισσότερα από 4000 αεροδρόμια (δελτία METAR και TAF).

Οι διαθέσιμοι σταθμοί απεικονίζονται στο χάρτη με κίτρινες και κόκκινες κουκκίδες.

Μετακινήστε το ποντίκι πάνω από τις κουκκίδες για να δείτε το όνομα του σταθμού.

Στη συνέχεια, κάντε κλικ για να δείτε τις μετεωρολογικές αναφορές και τις προγνώσεις καιρού.

Για να αλλάξετε το χάρτη: κάντε κλικ στα πράσινα κουμπιά με τον μαύρο σταυρό για να ζουμάρετε, στο πράσινο κουμπί με την παύλα για να αφαιρέσετε το ζουμ ή στα πράσινα βέλη για να αντιπαραβάλλετε χάρτες.


METAR-TAF: